Weather History for Cordoba, Spain

Change the Weather History Date:

Monday, October 7, 2013

  Actual Average Record
Temperature  
Mean Temperature 73 °F -  
Max Temperature 87 °F - - ()
Min Temperature 59 °F - - ()
Cooling Degree Days 8    
Growing Degree Days 23 (Base 50)    
Moisture  
Dew Point 56 °F    
Average Humidity 57    
Maximum Humidity 88    
Minimum Humidity 29    
Precipitation  
Precipitation 0.00 in 0.10 in - ()
Sea Level Pressure  
Sea Level Pressure 30.08 in    
Wind  
Wind Speed 1 mph ()    
Max Wind Speed 5 mph    
Max Gust Speed -    
Visibility 9.4 miles    
Events      
T = Trace of Precipitation, MM = Missing Value Source: Averaged Metar Reports

Daily Weather History Graph

Daily Weather History Graph

Search for Another Location

Airport:

Trip Planner

Search our weather history database for the weather conditions in past years. The results will help you decide how hot, cold, wet, or windy it might be!

Date:

Astronomy

Oct. 07, 2013 Rise Set
Actual Time 8:20 AM CEST 7:53 PM CEST
Civil Twilight 7:54 AM CEST 8:19 PM CEST
Nautical Twilight 7:23 AM CEST 8:49 PM CEST
Astronomical Twilight 6:53 AM CEST 9:20 PM CEST
Moon 10:51 AM CEST (10/7) 9:30 PM CEST (10/7)
Length of Visible Light 12h 25m
Length of Day
11h 32m
Waxing Crescent, 7% of the Moon is Illuminated
Oct 7
Waxing Crescent
Oct 12
First Quarter
Oct 19
Full
Oct 27
Last Quarter
Nov 3
New

Hourly Weather History & Observations

Time (CEST) Temp. Heat Index Dew Point Humidity Pressure Visibility Wind Dir Wind Speed Gust Speed Precip Events Conditions
2:00 AM 64 °F - 56 °F 67% 30.11 in - Calm Calm - -  
7:00 AM 60.8 °F - 57.2 °F 88% 30.09 in - Calm Calm - N/A   Clear
8:00 AM 59 °F - 55 °F 84% 30.11 in 16 mi Calm Calm - -   Scattered Clouds
8:00 AM 59.0 °F - 55.4 °F 88% 30.09 in - Calm Calm - N/A   Clear
9:00 AM 60.8 °F - 57.2 °F 88% 30.12 in - ENE 2.3 mph - N/A   Clear
10:00 AM 64.4 °F - 57.2 °F 77% 30.12 in - East 2.3 mph - N/A   Clear
10:43 AM 68.0 °F - 55.4 °F 64% 30.12 in - East 4.6 mph - N/A   Clear
11:00 AM 69.8 °F - 55.4 °F 60% 30.12 in - East 4.6 mph - N/A   Clear
11:47 AM 73.4 °F - 57.2 °F 57% 30.12 in - East 3.5 mph - N/A   Clear
12:00 PM 75.2 °F - 60.8 °F 61% 30.12 in 6.2 mi East 2.3 mph - N/A   Partly Cloudy
1:00 PM 77.0 °F - 59.0 °F 54% 30.12 in 6.2 mi North 1.2 mph - N/A   Partly Cloudy
2:00 PM 83 °F - 57 °F 30% 30.10 in 19 mi NE 1.2 mph - -   Scattered Clouds
2:00 PM 80.6 °F 80.8 °F 57.2 °F 45% 30.09 in 6.2 mi East 1.2 mph - N/A   Partly Cloudy
3:00 PM 82.4 °F 82.0 °F 57.2 °F 42% 30.06 in 6.2 mi SSW 2.3 mph - N/A   Partly Cloudy
4:00 PM 82.4 °F 82.0 °F 57.2 °F 42% 30.04 in 6.2 mi East 2.3 mph - N/A   Partly Cloudy
5:00 PM 84.2 °F 83.0 °F 55.4 °F 37% 30.04 in 6.2 mi South 1.2 mph - N/A   Partly Cloudy
6:00 PM 84.2 °F 82.8 °F 53.6 °F 35% 30.04 in 6.2 mi SW 2.3 mph - N/A   Partly Cloudy
7:00 PM 84.2 °F 82.8 °F 53.6 °F 35% 30.04 in 6.2 mi Calm Calm - N/A   Partly Cloudy
8:00 PM 80 °F - 53 °F 29% 30.04 in 19 mi WNW 1.2 mph - -   Scattered Clouds
8:00 PM 77.0 °F - 55.4 °F 47% 30.04 in - WNW 1.2 mph - N/A   Clear
9:00 PM 73.4 °F - 57.2 °F 57% 30.06 in - Calm Calm - N/A   Clear
10:00 PM 69.8 °F - 57.2 °F 64% 30.06 in - SSW 4.6 mph - N/A   Clear
11:00 PM 69.8 °F - 57.2 °F 64% 30.09 in - Variable 1.2 mph - N/A   Clear